Location: Newark
(52.4787°S, 179.0532°W)
Time: 19:44:25
(UTC+00:00)

Transit 2A Rocket - Pass Details

Date: 28 November 2019
Orbit: 594 x 909 km, 66.7° (Epoch: 05 December)

Event Time Altitude Azimuth Distance (km) Brightness Sun altitude
Rises 22:10:20 0° 269° (W) 3,475 8.2 54.0°
Reaches altitude 10° 22:13:13 10° 256° (WSW) 2,574 7.6 54.3°
Maximum altitude 22:18:14 26° 200° (SSW) 1,717 6.8 54.8°
Drops below altitude 10° 22:23:22 10° 144° (SE) 2,628 7.8 55.2°
Sets 22:26:21 0° 131° (SE) 3,561 8.4 55.5°
